This is the latest recevied weather packets stored in our database for station/object N5TSS. If no packets are shown the sender has not sent any weather packets the latest 1 day(s).
| Time | Temp. | Humidity | Pressure | Rain* | Wind** | Luminosity | Snow |
|---|---|---|---|---|---|---|---|
| 1778017873 | 28.89° C | 71% | 1007.4 hPa | 0 mm | 2.68 m/s, 198° | - | - |
| 1778017571 | 28.89° C | 71% | 1007.4 hPa | 0 mm | 2.24 m/s, 137° | - | - |
| 1778017268 | 28.89° C | 71% | 1007.4 hPa | 0 mm | 1.79 m/s, 236° | - | - |
| 1778016965 | 28.89° C | 71% | 1007.8 hPa | 0 mm | 1.34 m/s, 153° | - | - |
| 1778016662 | 28.89° C | 71% | 1008.1 hPa | 0 mm | 2.24 m/s, 151° | - | - |
| 1778016358 | 28.89° C | 71% | 1007.8 hPa | 0 mm | 1.34 m/s, 159° | - | - |
| 1778016065 | 28.33° C | 72% | 1008.1 hPa | 0 mm | 1.79 m/s, 146° | - | - |
| 1778015752 | 28.89° C | 71% | 1008.1 hPa | 0 mm | 1.34 m/s, 161° | - | - |
| 1778015449 | 28.89° C | 70% | 1008.1 hPa | 0 mm | 2.24 m/s, 173° | - | - |
| 1778015146 | 28.89° C | 71% | 1008.1 hPa | 0 mm | 2.68 m/s, 168° | - | - |
| 1778014843 | 28.89° C | 71% | 1008.5 hPa | 0 mm | 1.34 m/s, 156° | - | - |
| 1778014541 | 29.44° C | 70% | 1008.1 hPa | 0 mm | 2.24 m/s, 180° | - | - |
| 1778014238 | 29.44° C | 71% | 1008.5 hPa | 0 mm | 2.24 m/s, 208° | - | - |
| 1778013935 | 28.89° C | 71% | 1008.5 hPa | 0 mm | 2.24 m/s, 185° | - | - |
| 1778013632 | 28.89° C | 70% | 1008.5 hPa | 0 mm | 2.24 m/s, 182° | - | - |
| 1778013329 | 28.89° C | 71% | 1008.5 hPa | 0 mm | 1.79 m/s, 167° | - | - |
| 1778013026 | 28.33° C | 73% | 1008.8 hPa | 0 mm | 3.13 m/s, 183° | - | - |
| 1778012722 | 28.33° C | 72% | 1009.1 hPa | 0 mm | 2.24 m/s, 198° | - | - |
| 1778012418 | 27.78° C | 72% | 1008.8 hPa | 0 mm | 2.68 m/s, 178° | - | - |
| 1778012115 | 28.33° C | 72% | 1009.1 hPa | 0 mm | 1.79 m/s, 177° | - | - |
| 1778011813 | 28.33° C | 72% | 1009.1 hPa | 0 mm | 1.34 m/s, 178° | - | - |
| 1778011511 | 27.78° C | 73% | 1009.1 hPa | 0 mm | 2.24 m/s, 179° | - | - |
| 1778011207 | 28.33° C | 72% | 1009.1 hPa | 0 mm | 2.24 m/s, 144° | - | - |
| 1778010903 | 28.33° C | 72% | 1009.1 hPa | 0 mm | 2.68 m/s, 165° | - | - |
| 1778010601 | 28.33° C | 72% | 1009.1 hPa | 0 mm | 2.68 m/s, 217° | - | - |
* Rain latest hour (hover to see other rain measurements)
** Current wind speed in m/s (hover to see current wind gust speed)